Weather History for Wilmington, OH

Change the Weather History Date:

Friday, July 26, 2013

  Actual Average (KDAY) Record (KDAY)
Temperature  
Mean Temperature 66 °F 74 °F  
Max Temperature 80 °F 84 °F 101 °F (1901)
Min Temperature 53 °F 64 °F 52 °F (1977)
Degree Days  
Heating Degree Days 0 0  
Month to date heating degree days 0  
Since 1 June heating degree days 22  
Since 1 July heating degree days 0  
Cooling Degree Days 1 9  
Month to date cooling degree days 234  
Year to date cooling degree days 494  
Since 1 June cooling degree days 424  
Growing Degree Days 16 (Base 50)    
Moisture  
Dew Point 57 °F    
Average Humidity 73    
Maximum Humidity 97    
Minimum Humidity 46    
Precipitation  
Precipitation 0.00 in 0.12 in 1.45 in (1992)
Month to date precipitation 3.55  
Year to date precipitation 24.76  
Snow  
Snow 0.00 in 0.00 in 0.00 in ()
Month to date snowfall 0.0  
Since 1 June snowfall 0.0  
Since 1 July snowfall 0.0  
Snow Depth -    
Sea Level Pressure  
Sea Level Pressure 30.05 in    
Wind  
Wind Speed 3 mph (South)    
Max Wind Speed 9 mph    
Max Gust Speed -    
Visibility 9 miles    
Events      
T = Trace of Precipitation, MM = Missing Value Source: NWS Daily Summary

Daily Weather History Graph

Daily Weather History Graph

Search for Another Location

Airport:

Trip Planner

Search our weather history database for the weather conditions in past years. The results will help you decide how hot, cold, wet, or windy it might be!

Date:

Astronomy

Jul. 26, 2013 Rise Set
Actual Time 6:29 AM EDT 8:53 PM EDT
Civil Twilight 5:59 AM EDT 9:23 PM EDT
Nautical Twilight 5:21 AM EDT 10:01 PM EDT
Astronomical Twilight 4:39 AM EDT 10:42 PM EDT
Moon 11:08 PM EDT (7/26) 11:03 AM EDT (7/26)
Length of Visible Light 15h 24m
Length of Day
14h 23m
Waning Gibbous, 80% of the Moon is Illuminated
Jul 26
Waning Gibbous
Jul 29
Last Quarter
Aug 6
New
Aug 14
First Quarter
Aug 20
Full

Hourly Weather History & Observations

Time (EDT) Temp. Dew Point Humidity Pressure Visibility Wind Dir Wind Speed Gust Speed Precip Events Conditions
12:54 AM 57.0 °F 55.0 °F 93% 30.10 in 10.0 mi Calm Calm - N/A   Clear
1:54 AM 57.0 °F 55.0 °F 93% 30.10 in 10.0 mi NE 3.5 mph - N/A   Clear
2:54 AM 59.0 °F 54.0 °F 83% 30.09 in 10.0 mi NE 4.6 mph - N/A   Clear
3:54 AM 55.9 °F 53.1 °F 90% 30.07 in 10.0 mi Calm Calm - N/A   Clear
4:54 AM 54.0 °F 53.1 °F 97% 30.07 in 10.0 mi NE 3.5 mph - N/A   Clear
5:54 AM 54.0 °F 53.1 °F 97% 30.09 in 9.0 mi NNE 3.5 mph - N/A   Clear
6:54 AM 53.1 °F 51.1 °F 93% 30.09 in 5.0 mi Calm Calm - N/A   Clear
7:54 AM 61.0 °F 57.0 °F 87% 30.09 in 9.0 mi Calm Calm - N/A   Clear
8:54 AM 66.0 °F 59.0 °F 78% 30.10 in 10.0 mi Calm Calm - N/A   Clear
9:54 AM 70.0 °F 60.1 °F 71% 30.10 in 10.0 mi SSE 3.5 mph - N/A   Clear
10:54 AM 73.9 °F 55.9 °F 53% 30.09 in 10.0 mi SSW 3.5 mph - N/A   Clear
11:54 AM 75.0 °F 55.0 °F 50% 30.09 in 10.0 mi South 5.8 mph - N/A   Clear
12:54 PM 75.0 °F 55.9 °F 51% 30.08 in 10.0 mi Calm Calm - N/A   Clear
1:54 PM 75.9 °F 55.9 °F 50% 30.06 in 10.0 mi Variable 5.8 mph - N/A   Clear
2:54 PM 78.1 °F 55.9 °F 46% 30.04 in 10.0 mi SW 6.9 mph - N/A   Clear
3:54 PM 77.0 °F 59.0 °F 54% 30.03 in 10.0 mi Variable 5.8 mph - N/A   Scattered Clouds
4:54 PM 78.1 °F 57.9 °F 50% 30.02 in 10.0 mi South 8.1 mph - N/A   Scattered Clouds
5:54 PM 79.0 °F 59.0 °F 50% 30.01 in 10.0 mi SSW 9.2 mph - N/A   Partly Cloudy
6:54 PM 75.0 °F 60.1 °F 60% 30.01 in 10.0 mi SSW 6.9 mph - N/A   Clear
7:54 PM 73.0 °F 62.1 °F 68% 30.00 in 10.0 mi South 4.6 mph - N/A   Clear
8:54 PM 69.1 °F 63.0 °F 81% 30.00 in 10.0 mi South 3.5 mph - N/A   Clear
9:54 PM 66.9 °F 63.0 °F 87% 29.99 in 9.0 mi Calm Calm - N/A   Clear
10:54 PM 66.9 °F 63.0 °F 87% 29.99 in 8.0 mi Calm Calm - N/A   Clear
11:54 PM 66.9 °F 63.0 °F 87% 29.98 in 5.0 mi Calm Calm - N/A   Clear